DELGD ELLX-EDDF

Flight info

Callsign DELGD
Flight time N/A
Altitude 7000
Route ASMOX Y891 LULAT Y890 KULZO T847 IMCOM IMCOM1A
Aircraft DA40/L-SBDGRY/S

Departure

Time 2026-05-04 14:40
Airport Luxembourg-Findel International Airport (ELLX)

Arrival

Time N/A
Airport Frankfurt Main Airport (EDDF)
Time Latitude Longitude Altitude Speed Heading
2026-05-04 14:25 49.62946 6.20888 1189 ft 0 kts 28°
2026-05-04 14:34 49.62944 6.20905 1189 ft 1 kts 164°
2026-05-04 14:35 49.62912 6.20914 1189 ft 5 kts 156°
2026-05-04 14:35 49.62881 6.20947 1190 ft 5 kts 142°
2026-05-04 14:35 49.62878 6.20950 1190 ft 0 kts 141°
2026-05-04 14:35 49.62861 6.20936 1190 ft 10 kts 231°
2026-05-04 14:36 49.62814 6.20790 1190 ft 18 kts 243°
2026-05-04 14:36 49.62738 6.20664 1190 ft 15 kts 216°
2026-05-04 14:36 49.62665 6.20575 1191 ft 11 kts 226°
2026-05-04 14:36 49.62614 6.20489 1191 ft 11 kts 226°
2026-05-04 14:37 49.62557 6.20388 1191 ft 16 kts 229°
2026-05-04 14:37 49.62484 6.20241 1192 ft 18 kts 243°
2026-05-04 14:37 49.62417 6.20062 1192 ft 21 kts 237°
2026-05-04 14:37 49.62338 6.19851 1192 ft 24 kts 237°
2026-05-04 14:38 49.62254 6.19621 1191 ft 24 kts 242°
2026-05-04 14:38 49.62137 6.19596 1198 ft 12 kts 150°
2026-05-04 14:38 49.62097 6.19683 1201 ft 5 kts 77°
2026-05-04 14:38 49.62098 6.19687 1201 ft 0 kts 64°
2026-05-04 14:39 49.62156 6.19842 1203 ft 40 kts 60°
2026-05-04 14:39 49.62358 6.20402 1216 ft 77 kts 62°
2026-05-04 14:39 49.62625 6.21076 1470 ft 70 kts 62°
2026-05-04 14:40 49.63118 6.22382 1852 ft 70 kts 62°
2026-05-04 14:40 49.63365 6.23033 2061 ft 72 kts 69°
2026-05-04 14:40 49.63621 6.23718 2233 ft 74 kts 67°
2026-05-04 14:40 49.63879 6.24410 2426 ft 75 kts 68°
2026-05-04 14:41 49.64139 6.25115 2634 ft 76 kts 68°
2026-05-04 14:41 49.64402 6.25818 2825 ft 78 kts 68°
2026-05-04 14:41 49.64937 6.27265 3204 ft 79 kts 68°
2026-05-04 14:42 49.65487 6.28749 3586 ft 80 kts 69°
2026-05-04 14:42 49.65762 6.29493 3775 ft 81 kts 69°
2026-05-04 14:42 49.66046 6.30261 3944 ft 84 kts 69°
2026-05-04 14:43 49.66357 6.31105 4003 ft 101 kts 69°
2026-05-04 14:43 49.66739 6.32155 4000 ft 121 kts 66°
2026-05-04 14:43 49.67174 6.33344 4002 ft 133 kts 67°
2026-05-04 14:43 49.67639 6.34605 4100 ft 132 kts 67°
2026-05-04 14:44 49.68066 6.35730 4508 ft 111 kts 65°
2026-05-04 14:44 49.68579 6.36547 4848 ft 103 kts 59°
2026-05-04 14:44 49.68888 6.37469 5045 ft 99 kts 79°
2026-05-04 14:44 49.69154 6.38439 5263 ft 100 kts 78°
2026-05-04 14:45 49.69443 6.39421 5460 ft 101 kts 77°
2026-05-04 14:45 49.69749 6.40406 5650 ft 102 kts 76°
2026-05-04 14:45 49.70065 6.41387 5849 ft 102 kts 76°
2026-05-04 14:45 49.70383 6.42364 6059 ft 102 kts 75°
2026-05-04 14:46 49.70706 6.43343 6277 ft 103 kts 76°
2026-05-04 14:46 49.71031 6.44328 6475 ft 104 kts 76°
2026-05-04 14:46 49.71360 6.45334 6703 ft 105 kts 76°
2026-05-04 14:46 49.71694 6.46338 6926 ft 105 kts 75°
2026-05-04 14:47 49.72030 6.47349 7153 ft 106 kts 75°
2026-05-04 14:47 49.72368 6.48374 7339 ft 108 kts 75°
2026-05-04 14:47 49.72708 6.49398 7574 ft 107 kts 74°
2026-05-04 14:47 49.73051 6.50427 7793 ft 108 kts 73°
2026-05-04 14:48 49.73197 6.51481 8045 ft 96 kts 99°
2026-05-04 14:48 49.73259 6.52511 8273 ft 99 kts 98°
2026-05-04 14:48 49.73337 6.53569 8502 ft 100 kts 97°
2026-05-04 14:48 49.73422 6.54635 8769 ft 101 kts 96°
2026-05-04 14:49 49.73512 6.55728 8998 ft 110 kts 95°
2026-05-04 14:49 49.73617 6.57052 8995 ft 136 kts 92°
2026-05-04 14:49 49.73745 6.58556 8979 ft 144 kts 92°
2026-05-04 14:49 49.73883 6.60088 8977 ft 143 kts 91°
2026-05-04 14:50 49.74021 6.61613 8979 ft 144 kts 92°
2026-05-04 14:50 49.74113 6.62633 8981 ft 145 kts 92°
2026-05-04 14:50 49.74251 6.64180 8977 ft 146 kts 92°
2026-05-04 14:50 49.74388 6.65732 8985 ft 146 kts 92°
2026-05-04 14:51 49.74527 6.67302 8986 ft 148 kts 91°
2026-05-04 14:51 49.74666 6.68877 8982 ft 148 kts 91°
2026-05-04 14:51 49.74807 6.70453 8981 ft 148 kts 91°
2026-05-04 14:51 49.74947 6.72033 8981 ft 148 kts 91°
2026-05-04 14:52 49.75090 6.73620 8999 ft 150 kts 93°
2026-05-04 14:52 49.75217 6.75235 8973 ft 152 kts 91°
2026-05-04 14:52 49.75369 6.76851 8973 ft 150 kts 91°
2026-05-04 14:52 49.75514 6.78429 8979 ft 146 kts 92°
2026-05-04 14:53 49.75648 6.79965 9001 ft 140 kts 93°
2026-05-04 14:53 49.75781 6.81497 8979 ft 146 kts 92°
2026-05-04 14:53 49.75921 6.83025 8982 ft 144 kts 92°
2026-05-04 14:53 49.76051 6.84563 8984 ft 145 kts 93°
2026-05-04 14:54 49.76181 6.86137 8983 ft 147 kts 93°
2026-05-04 14:54 49.76320 6.87719 8986 ft 150 kts 92°
2026-05-04 14:54 49.76457 6.89337 8997 ft 152 kts 94°
2026-05-04 14:54 49.76596 6.90948 9000 ft 154 kts 91°
2026-05-04 14:55 49.76740 6.92594 8997 ft 154 kts 91°
2026-05-04 14:55 49.76881 6.94232 9000 ft 154 kts 91°
2026-05-04 14:55 49.77022 6.95870 8998 ft 154 kts 91°
2026-05-04 14:55 49.77166 6.97510 9013 ft 155 kts 90°
2026-05-04 14:56 49.77311 6.99188 8981 ft 158 kts 92°
2026-05-04 14:56 49.77447 7.00847 8982 ft 154 kts 92°